Location: Wanzleben
(52.0609°N, 11.4408°E)
Time: 06:20:16
(UTC+00:00)

SJ-6B - Pass Details

Date: 18 September 2020
Orbit: 511 x 580 km, 97.6° (Epoch: 19 October)

Event Time Altitude Azimuth Distance (km) Brightness Sun altitude
Exits shadow 19:21:40 13° 190° (S) 1,577 5.0 -18.6°
Maximum altitude 19:24:50 43° 261° (W) 731 3.8 -19.0°
Drops below altitude 10° 19:28:28 10° 334° (NNW) 1,757 6.2 -19.5°
Sets 19:30:40 0° 342° (NNW) 2,658 7.1 -19.8°
